STARLINK-1112, 44925

Orbit data source: Space-Track

STARLINK-1112, 44925 is a payload satellite owned by SpaceX/Seattle (US) in LEO that was launched on Tue, 07 Jan 2020 UTC via an FALCON 9 launch vehicle from the Air Force Eastern Test Range (AFETR). Payload-class satellites include a variety of spacecraft equipped with specific instruments for various scientific and technological missions. These include communications satellites like Starlink; space stations such as the ISS; scientific satellites like the Hubble; Earth observation satellites from companies like Planet Labs, Umbra, and HawkEye 360; GPS; miniature CubeSats for education and research; and military/defense satellites.

Loading next visibility...
Identifier
44925, 2020-001M
Orbit
LEO
Country
Flag of USUS
Related business
Manufacturer
SpaceX/Seattle
Mission
Partially operational Commercial Communications
Bus & Motor
STARLINK, Unknown motor
Mass
260 kg wet, ~248 kg dry
Launch date (UTC)
2020-01-07 (6 years ago)
Launch vehicle
FALCON 9
Launch site
Air Force Eastern Test Range (AFETR)
Object type
Payload
Rocket body
Debris
Shape & HBR
Box + 1 Pan, 10.1 m
Radar Cross Section
13.562 m², Large (>1 m²)

Expand to show TLE details & history
Last TLE update: 2 days ago

TLE from 2 days ago
0 STARLINK-1112
1 44925U 20001M   25312.75135270  .00055903  00000-0  80582-3 0  9998
2 44925  53.0476 124.4409 0004005 170.7694 189.3391 15.55479693322250
Epoch: 2025-11-08T18:01Z
TLE epoch observation values (Epoch: 2025-11-08T18:01:56.873Z)
Latitude
0.00002°
Longitude
165.77748°
Altitude
404.335 km
Speed
7.668 km/s
True Right ascension
08h 17m 45s
True Declination
0° 00' 00"
Sunlit
Object was in daylight at epoch
Visualization orbit readout
Latitude
Unknown
Longitude
Unknown
Altitude
Unknown
Speed
Unknown
Apparent Right ascension
Unknown
Apparent Declination
Unknown
Sunlit
N/A
Visualization observer readout
Local Sidereal Time
03:14:08
Azimuth
Unknown
Elevation
Unknown
Doppler factor
Unknown
Orbital elements
Apogee altitude
403.751 km
Perigee altitude
398.321 km
Semi-major axis
6,779.173 km
Eccentricity
0.0004
Inclination
53.0476°
RAAN
124.4409°
Arg. of periapsis
170.7694°
True anomaly
189.33166°
Mean anomaly
189.3391°
Eccentric anomaly
189.33538°
Mean motion
3.88846 °/min
Orbital period
92.58 mins
BSTAR
0.00080582
Loading maneuver chart data...
Computing Atmospheric mass density...

Documentation

Showing up to 5 results
|